Time,TemperatureF,DewpointF,PressureIn,WindDirection,WindDirectionDegrees,WindSpeedMPH,WindSpeedGustMPH,Humidity,HourlyPrecipIn,Conditions,Clouds,dailyrainin,SoftwareType,DateUTC
2013-02-15 00:00:00,33.5,27.3,29.61,WNW,293,4.9,6.9,78,0.00,,,0.00,WUHU216HW,2013-02-15 05:00:00,
2013-02-15 00:05:00,33.5,27.6,29.61,WNW,293,2.9,14.3,79,0.00,,,0.00,WUHU216HW,2013-02-15 05:05:00,
2013-02-15 00:10:00,33.3,27.5,29.60,West,270,8.3,14.3,79,0.00,,,0.00,WUHU216HW,2013-02-15 05:10:00,
2013-02-15 00:15:00,33.1,27.6,29.61,WSW,248,8.5,9.2,80,0.00,,,0.00,WUHU216HW,2013-02-15 05:15:00,
2013-02-15 00:20:00,33.1,27.6,29.61,WSW,248,7.2,9.2,80,0.00,,,0.00,WUHU216HW,2013-02-15 05:20:00,
2013-02-15 00:25:00,33.1,27.6,29.61,WNW,293,10.5,10.7,80,0.00,,,0.00,WUHU216HW,2013-02-15 05:25:00,
2013-02-15 00:30:00,32.9,27.5,29.62,West,270,9.8,14.3,80,0.00,,,0.00,WUHU216HW,2013-02-15 05:30:00,
2013-02-15 00:35:00,32.8,27.0,29.62,WNW,293,7.8,14.3,79,0.00,,,0.00,WUHU216HW,2013-02-15 05:35:00,
2013-02-15 00:40:00,32.8,27.0,29.62,West,270,3.6,13.0,79,0.00,,,0.00,WUHU216HW,2013-02-15 05:40:00,
2013-02-15 00:45:00,32.8,27.0,29.62,West,270,8.1,8.1,79,0.00,,,0.00,WUHU216HW,2013-02-15 05:45:00,
2013-02-15 00:50:00,32.8,27.0,29.63,West,270,5.4,13.0,79,0.00,,,0.00,WUHU216HW,2013-02-15 05:50:00,
2013-02-15 00:55:00,32.8,26.6,29.63,West,270,5.6,13.0,78,0.00,,,0.00,WUHU216HW,2013-02-15 05:55:00,
2013-02-15 01:00:00,32.6,26.5,29.63,West,270,7.4,7.4,78,0.00,,,0.00,WUHU216HW,2013-02-15 06:00:00,
2013-02-15 01:05:00,32.4,26.0,29.63,West,270,2.9,11.2,77,0.00,,,0.00,WUHU216HW,2013-02-15 06:05:00,
2013-02-15 01:10:00,32.2,25.8,29.63,WNW,293,7.2,11.2,77,0.00,,,0.00,WUHU216HW,2013-02-15 06:10:00,
2013-02-15 01:15:00,32.2,25.8,29.63,WSW,248,5.1,7.2,77,0.00,,,0.00,WUHU216HW,2013-02-15 06:15:00,
2013-02-15 01:20:00,32.0,25.7,29.63,NW,315,2.2,7.2,77,0.00,,,0.00,WUHU216HW,2013-02-15 06:20:00,
2013-02-15 01:25:00,32.0,25.7,29.63,NW,315,7.2,7.2,77,0.00,,,0.00,WUHU216HW,2013-02-15 06:25:00,
2013-02-15 01:30:00,31.9,25.5,29.64,West,270,5.4,7.2,77,0.00,,,0.00,WUHU216HW,2013-02-15 06:30:00,
2013-02-15 01:35:00,31.9,25.5,29.63,WNW,293,5.1,7.2,77,0.00,,,0.00,WUHU216HW,2013-02-15 06:35:00,
2013-02-15 01:40:00,31.7,25.7,29.64,WSW,248,3.4,6.9,78,0.00,,,0.00,WUHU216HW,2013-02-15 06:40:00,
2013-02-15 01:45:00,31.5,25.5,29.64,WSW,248,4.3,6.7,78,0.00,,,0.00,WUHU216HW,2013-02-15 06:45:00,
2013-02-15 01:50:00,31.3,25.3,29.64,WNW,293,3.4,8.5,78,0.00,,,0.00,WUHU216HW,2013-02-15 06:50:00,
2013-02-15 01:55:00,31.3,25.3,29.64,West,270,4.5,8.5,78,0.00,,,0.00,WUHU216HW,2013-02-15 06:55:00,
2013-02-15 02:00:00,31.3,25.3,29.65,West,270,1.8,6.9,78,0.00,,,0.00,WUHU216HW,2013-02-15 07:00:00,
2013-02-15 02:05:00,31.3,25.3,29.65,West,270,2.7,6.3,78,0.00,,,0.00,WUHU216HW,2013-02-15 07:05:00,
2013-02-15 02:10:00,31.3,25.3,29.65,SW,225,5.8,5.8,78,0.00,,,0.00,WUHU216HW,2013-02-15 07:10:00,
2013-02-15 02:15:00,31.3,24.9,29.66,WSW,248,5.1,6.9,77,0.00,,,0.00,WUHU216HW,2013-02-15 07:15:00,
2013-02-15 02:20:00,31.1,24.8,29.66,WSW,248,2.9,6.9,77,0.00,,,0.00,WUHU216HW,2013-02-15 07:20:00,
2013-02-15 02:25:00,31.1,24.8,29.66,NW,315,2.9,5.1,77,0.00,,,0.00,WUHU216HW,2013-02-15 07:25:00,
2013-02-15 02:30:00,31.0,24.6,29.66,NW,315,2.9,4.0,77,0.00,,,0.00,WUHU216HW,2013-02-15 07:30:00,
2013-02-15 02:35:00,31.0,24.6,29.66,WNW,293,3.6,4.0,77,0.00,,,0.00,WUHU216HW,2013-02-15 07:35:00,
2013-02-15 02:40:00,31.0,24.6,29.66,NW,315,1.8,3.6,77,0.00,,,0.00,WUHU216HW,2013-02-15 07:40:00,
2013-02-15 02:45:00,31.0,24.6,29.66,West,270,1.6,3.6,77,0.00,,,0.00,WUHU216HW,2013-02-15 07:45:00,
2013-02-15 02:50:00,30.8,24.4,29.66,WNW,293,2.7,3.6,77,0.00,,,0.00,WUHU216HW,2013-02-15 07:50:00,
2013-02-15 02:55:00,31.0,24.6,29.66,NW,315,1.1,3.6,77,0.00,,,0.00,WUHU216HW,2013-02-15 07:55:00,
2013-02-15 03:00:00,30.8,24.4,29.66,West,270,2.9,4.3,77,0.00,,,0.00,WUHU216HW,2013-02-15 08:00:00,
2013-02-15 03:05:00,30.8,24.4,29.67,NW,315,3.8,5.1,77,0.00,,,0.00,WUHU216HW,2013-02-15 08:05:00,
2013-02-15 03:10:00,30.8,24.4,29.67,West,270,1.3,5.1,77,0.00,,,0.00,WUHU216HW,2013-02-15 08:10:00,
2013-02-15 03:15:00,30.8,24.8,29.67,West,270,3.8,4.5,78,0.00,,,0.00,WUHU216HW,2013-02-15 08:15:00,
2013-02-15 03:20:00,30.6,24.6,29.67,SW,225,6.5,6.5,78,0.00,,,0.00,WUHU216HW,2013-02-15 08:20:00,
2013-02-15 03:25:00,30.4,24.0,29.67,WNW,293,2.2,6.5,77,0.00,,,0.00,WUHU216HW,2013-02-15 08:25:00,
2013-02-15 03:30:00,30.1,24.0,29.68,West,270,2.7,6.5,78,0.00,,,0.00,WUHU216HW,2013-02-15 08:30:00,
2013-02-15 03:35:00,29.9,23.9,29.68,West,270,2.7,4.5,78,0.00,,,0.00,WUHU216HW,2013-02-15 08:35:00,
2013-02-15 03:40:00,29.5,23.1,29.68,West,270,2.9,5.8,77,0.00,,,0.00,WUHU216HW,2013-02-15 08:40:00,
2013-02-15 03:45:00,29.2,22.9,29.68,WNW,293,1.3,5.8,77,0.00,,,0.00,WUHU216HW,2013-02-15 08:45:00,
2013-02-15 03:50:00,29.0,22.7,29.68,West,270,2.5,3.8,77,0.00,,,0.00,WUHU216HW,2013-02-15 08:50:00,
2013-02-15 03:55:00,29.0,22.7,29.68,WSW,248,1.8,3.8,77,0.00,,,0.00,WUHU216HW,2013-02-15 08:55:00,
2013-02-15 04:00:00,28.6,22.3,29.68,West,270,2.5,3.8,77,0.00,,,0.00,WUHU216HW,2013-02-15 09:00:00,
2013-02-15 04:05:00,28.4,22.4,29.68,West,270,2.7,7.2,78,0.00,,,0.00,WUHU216HW,2013-02-15 09:05:00,
2013-02-15 04:10:00,28.4,22.4,29.69,West,270,3.4,7.2,78,0.00,,,0.00,WUHU216HW,2013-02-15 09:10:00,
2013-02-15 04:15:00,28.3,22.0,29.69,West,270,1.8,6.3,77,0.00,,,0.00,WUHU216HW,2013-02-15 09:15:00,
2013-02-15 04:20:00,28.3,22.0,29.69,West,270,3.4,4.3,77,0.00,,,0.00,WUHU216HW,2013-02-15 09:20:00,
2013-02-15 04:25:00,28.1,21.8,29.69,West,270,4.7,4.7,77,0.00,,,0.00,WUHU216HW,2013-02-15 09:25:00,
2013-02-15 04:30:00,27.9,21.6,29.69,WNW,293,0.9,4.7,77,0.00,,,0.00,WUHU216HW,2013-02-15 09:30:00,
2013-02-15 04:35:00,27.7,21.4,29.69,West,270,2.0,4.7,77,0.00,,,0.00,WUHU216HW,2013-02-15 09:35:00,
2013-02-15 04:40:00,27.7,21.4,29.69,NW,315,3.1,4.0,77,0.00,,,0.00,WUHU216HW,2013-02-15 09:40:00,
2013-02-15 04:45:00,27.5,21.3,29.69,NW,315,2.2,4.0,77,0.00,,,0.00,WUHU216HW,2013-02-15 09:45:00,
2013-02-15 04:50:00,27.5,21.3,29.70,WNW,293,2.5,3.8,77,0.00,,,0.00,WUHU216HW,2013-02-15 09:50:00,
2013-02-15 04:55:00,27.4,21.1,29.69,WNW,293,2.9,2.9,77,0.00,,,0.00,WUHU216HW,2013-02-15 09:55:00,
2013-02-15 05:00:00,27.4,21.1,29.70,WNW,293,2.9,8.1,77,0.00,,,0.00,WUHU216HW,2013-02-15 10:00:00,
2013-02-15 05:05:00,27.4,21.1,29.70,WNW,293,5.1,8.1,77,0.00,,,0.00,WUHU216HW,2013-02-15 10:05:00,
2013-02-15 05:10:00,27.2,20.9,29.70,West,270,4.9,6.5,77,0.00,,,0.00,WUHU216HW,2013-02-15 10:10:00,
2013-02-15 05:15:00,27.2,20.9,29.71,WSW,248,2.9,6.9,77,0.00,,,0.00,WUHU216HW,2013-02-15 10:15:00,
2013-02-15 05:21:00,27.0,20.3,29.71,NW,315,3.4,6.9,76,0.00,,,0.00,WUHU216HW,2013-02-15 10:21:00,
2013-02-15 05:25:00,27.0,19.8,29.71,WNW,293,6.0,9.4,74,0.00,,,0.00,WUHU216HW,2013-02-15 10:25:00,
2013-02-15 05:30:00,27.0,19.8,29.71,WSW,248,5.6,9.4,74,0.00,,,0.00,WUHU216HW,2013-02-15 10:30:00,
2013-02-15 05:36:00,26.8,19.6,29.72,WSW,248,4.7,9.2,74,0.00,,,0.00,WUHU216HW,2013-02-15 10:36:00,
2013-02-15 05:41:00,26.8,19.6,29.72,WNW,293,2.9,6.9,74,0.00,,,0.00,WUHU216HW,2013-02-15 10:41:00,
2013-02-15 05:46:00,26.8,19.9,29.72,West,270,4.3,5.6,75,0.00,,,0.00,WUHU216HW,2013-02-15 10:46:00,
2013-02-15 05:50:00,26.6,19.5,29.72,West,270,2.5,5.4,74,0.00,,,0.00,WUHU216HW,2013-02-15 10:50:00,
2013-02-15 05:56:00,26.6,19.7,29.72,NW,315,2.5,4.7,75,0.00,,,0.00,WUHU216HW,2013-02-15 10:56:00,
2013-02-15 06:01:00,26.6,19.7,29.73,WNW,293,2.2,4.3,75,0.00,,,0.00,WUHU216HW,2013-02-15 11:01:00,
2013-02-15 06:06:00,26.6,19.7,29.72,WSW,248,3.8,5.4,75,0.00,,,0.00,WUHU216HW,2013-02-15 11:06:00,
2013-02-15 06:11:00,26.6,19.7,29.73,WNW,293,2.5,5.4,75,0.00,,,0.00,WUHU216HW,2013-02-15 11:11:00,
2013-02-15 06:16:00,26.6,19.7,29.74,WNW,293,2.0,6.0,75,0.00,,,0.00,WUHU216HW,2013-02-15 11:16:00,
2013-02-15 06:21:00,26.6,19.7,29.74,WNW,293,5.4,6.0,75,0.00,,,0.00,WUHU216HW,2013-02-15 11:21:00,
2013-02-15 06:26:00,26.6,19.7,29.74,WNW,293,5.4,5.4,75,0.00,,,0.00,WUHU216HW,2013-02-15 11:26:00,
2013-02-15 06:31:00,26.6,19.7,29.74,NNW,338,2.5,5.4,75,0.00,,,0.00,WUHU216HW,2013-02-15 11:31:00,
2013-02-15 06:36:00,26.6,19.7,29.75,West,270,1.8,5.4,75,0.00,,,0.00,WUHU216HW,2013-02-15 11:36:00,
2013-02-15 06:41:00,26.5,19.5,29.75,West,270,5.4,5.4,75,0.00,,,0.00,WUHU216HW,2013-02-15 11:41:00,
2013-02-15 06:46:00,26.5,19.5,29.75,West,270,4.0,8.3,75,0.00,,,0.00,WUHU216HW,2013-02-15 11:46:00,
2013-02-15 06:51:00,26.5,19.5,29.75,West,270,1.8,8.3,75,0.00,,,0.00,WUHU216HW,2013-02-15 11:51:00,
2013-02-15 06:56:00,26.3,19.4,29.75,West,270,1.1,4.5,75,0.00,,,0.00,WUHU216HW,2013-02-15 11:56:00,
2013-02-15 07:01:00,26.3,19.4,29.75,NW,315,1.6,6.3,75,0.00,,,0.00,WUHU216HW,2013-02-15 12:01:00,
2013-02-15 07:06:00,26.3,19.4,29.76,NW,315,1.1,6.3,75,0.00,,,0.00,WUHU216HW,2013-02-15 12:06:00,
2013-02-15 07:11:00,26.3,19.4,29.76,WSW,248,6.0,6.3,75,0.00,,,0.00,WUHU216HW,2013-02-15 12:11:00,
2013-02-15 07:16:00,26.1,19.2,29.76,WSW,248,3.8,6.3,75,0.00,,,0.00,WUHU216HW,2013-02-15 12:16:00,
2013-02-15 07:21:00,25.9,19.0,29.76,West,270,3.1,6.0,75,0.00,,,0.00,WUHU216HW,2013-02-15 12:21:00,
2013-02-15 07:26:00,25.9,19.0,29.76,WSW,248,1.6,3.8,75,0.00,,,0.00,WUHU216HW,2013-02-15 12:26:00,
2013-02-15 07:31:00,25.7,18.5,29.77,West,270,3.1,5.4,74,0.00,,,0.00,WUHU216HW,2013-02-15 12:31:00,
2013-02-15 07:36:00,25.6,18.1,29.77,WNW,293,4.0,5.4,73,0.00,,,0.00,WUHU216HW,2013-02-15 12:36:00,
2013-02-15 07:41:00,25.2,17.7,29.77,WNW,293,1.3,5.4,73,0.00,,,0.00,WUHU216HW,2013-02-15 12:41:00,
2013-02-15 07:46:00,25.2,17.7,29.77,WSW,248,3.4,5.4,73,0.00,,,0.00,WUHU216HW,2013-02-15 12:46:00,
2013-02-15 07:51:00,24.8,17.4,29.77,WSW,248,1.1,5.4,73,0.00,,,0.00,WUHU216HW,2013-02-15 12:51:00,
2013-02-15 07:56:00,24.8,17.4,29.78,West,270,1.3,5.4,73,0.00,,,0.00,WUHU216HW,2013-02-15 12:56:00,
2013-02-15 08:01:00,25.0,17.2,29.78,WNW,293,3.4,5.4,72,0.00,,,0.00,WUHU216HW,2013-02-15 13:01:00,
2013-02-15 08:06:00,25.0,17.2,29.78,WNW,293,1.1,5.4,72,0.00,,,0.00,WUHU216HW,2013-02-15 13:06:00,
2013-02-15 08:11:00,24.8,16.4,29.78,WNW,293,3.4,4.0,70,0.00,,,0.00,WUHU216HW,2013-02-15 13:11:00,
2013-02-15 08:16:00,25.0,16.6,29.79,West,270,2.0,4.9,70,0.00,,,0.00,WUHU216HW,2013-02-15 13:16:00,
2013-02-15 08:21:00,24.8,16.0,29.79,WNW,293,2.2,6.0,69,0.00,,,0.00,WUHU216HW,2013-02-15 13:21:00,
2013-02-15 08:26:00,25.0,16.6,29.79,WSW,248,4.0,6.0,70,0.00,,,0.00,WUHU216HW,2013-02-15 13:26:00,
2013-02-15 08:31:00,25.0,16.2,29.79,WSW,248,2.5,6.9,69,0.00,,,0.00,WUHU216HW,2013-02-15 13:31:00,
2013-02-15 08:36:00,25.0,16.2,29.80,NNW,338,1.8,7.6,69,0.00,,,0.00,WUHU216HW,2013-02-15 13:36:00,
2013-02-15 08:41:00,25.0,16.2,29.79,WSW,248,0.4,7.6,69,0.00,,,0.00,WUHU216HW,2013-02-15 13:41:00,
2013-02-15 08:46:00,25.4,16.9,29.79,WNW,293,2.2,3.8,70,0.00,,,0.00,WUHU216HW,2013-02-15 13:46:00,
2013-02-15 08:51:00,25.6,16.7,29.80,NW,315,2.5,4.5,69,0.00,,,0.00,WUHU216HW,2013-02-15 13:51:00,
2013-02-15 08:56:00,25.6,16.0,29.80,WNW,293,4.0,4.5,67,0.00,,,0.00,WUHU216HW,2013-02-15 13:56:00,
2013-02-15 09:01:00,25.4,15.6,29.80,WNW,293,0.9,4.5,66,0.00,,,0.00,WUHU216HW,2013-02-15 14:01:00,
2013-02-15 09:06:00,25.6,16.0,29.81,NNW,338,1.8,4.5,67,0.00,,,0.00,WUHU216HW,2013-02-15 14:06:00,
2013-02-15 09:11:00,25.7,15.8,29.81,WNW,293,1.8,6.3,66,0.00,,,0.00,WUHU216HW,2013-02-15 14:11:00,
2013-02-15 09:16:00,25.9,16.0,29.81,NW,315,3.1,6.3,66,0.00,,,0.00,WUHU216HW,2013-02-15 14:16:00,
2013-02-15 09:21:00,25.9,16.0,29.81,WSW,248,4.0,7.4,66,0.00,,,0.00,WUHU216HW,2013-02-15 14:21:00,
2013-02-15 09:26:00,26.3,16.4,29.81,West,270,2.5,7.4,66,0.00,,,0.00,WUHU216HW,2013-02-15 14:26:00,
2013-02-15 09:31:00,26.3,16.4,29.81,West,270,3.1,8.7,66,0.00,,,0.00,WUHU216HW,2013-02-15 14:31:00,
2013-02-15 09:36:00,26.3,16.4,29.82,North,0,1.1,8.7,66,0.00,,,0.00,WUHU216HW,2013-02-15 14:36:00,
2013-02-15 09:41:00,26.3,16.4,29.82,WNW,293,2.7,4.3,66,0.00,,,0.00,WUHU216HW,2013-02-15 14:41:00,
2013-02-15 09:46:00,26.5,16.2,29.82,West,270,6.3,9.4,65,0.00,,,0.00,WUHU216HW,2013-02-15 14:46:00,
2013-02-15 09:51:00,26.3,15.7,29.82,SW,225,3.8,9.4,64,0.00,,,0.00,WUHU216HW,2013-02-15 14:51:00,
2013-02-15 09:56:00,25.9,15.7,29.82,West,270,2.9,6.5,65,0.00,,,0.00,WUHU216HW,2013-02-15 14:56:00,
2013-02-15 10:01:00,25.9,16.0,29.82,WNW,293,8.9,8.9,66,0.00,,,0.00,WUHU216HW,2013-02-15 15:01:00,
2013-02-15 10:06:00,25.9,16.0,29.82,WNW,293,4.9,8.9,66,0.00,,,0.00,WUHU216HW,2013-02-15 15:06:00,
2013-02-15 10:11:00,26.3,16.4,29.82,NW,315,3.8,8.9,66,0.00,,,0.00,WUHU216HW,2013-02-15 15:11:00,
2013-02-15 10:16:00,26.5,16.2,29.82,West,270,7.2,7.6,65,0.00,,,0.00,WUHU216HW,2013-02-15 15:16:00,
2013-02-15 10:21:00,26.5,16.2,29.82,West,270,7.4,8.5,65,0.00,,,0.00,WUHU216HW,2013-02-15 15:21:00,
2013-02-15 10:26:00,26.8,16.6,29.82,West,270,2.5,8.5,65,0.00,,,0.00,WUHU216HW,2013-02-15 15:26:00,
2013-02-15 10:31:00,27.0,16.7,29.82,WSW,248,6.9,8.7,65,0.00,,,0.00,WUHU216HW,2013-02-15 15:31:00,
2013-02-15 10:36:00,27.2,16.2,29.82,NNW,338,5.1,8.7,63,0.00,,,0.00,WUHU216HW,2013-02-15 15:36:00,
2013-02-15 10:41:00,27.0,16.4,29.82,West,270,4.7,6.9,64,0.00,,,0.00,WUHU216HW,2013-02-15 15:41:00,
2013-02-15 10:46:00,27.5,16.9,29.82,WNW,293,1.1,5.4,64,0.00,,,0.00,WUHU216HW,2013-02-15 15:46:00,
2013-02-15 10:51:00,28.3,17.6,29.82,NW,315,1.6,11.9,64,0.00,,,0.00,WUHU216HW,2013-02-15 15:51:00,
2013-02-15 10:56:00,28.3,17.3,29.82,West,270,6.3,11.9,63,0.00,,,0.00,WUHU216HW,2013-02-15 15:56:00,
2013-02-15 11:01:00,28.4,17.5,29.82,West,270,3.8,8.1,63,0.00,,,0.00,WUHU216HW,2013-02-15 16:01:00,
2013-02-15 11:06:00,28.6,17.3,29.82,WSW,248,1.8,6.3,62,0.00,,,0.00,WUHU216HW,2013-02-15 16:06:00,
2013-02-15 11:11:00,28.4,17.5,29.83,West,270,3.1,4.9,63,0.00,,,0.00,WUHU216HW,2013-02-15 16:11:00,
2013-02-15 11:16:00,28.1,17.1,29.83,WNW,293,2.7,6.5,63,0.00,,,0.00,WUHU216HW,2013-02-15 16:16:00,
2013-02-15 11:21:00,28.1,17.5,29.82,West,270,4.0,6.5,64,0.00,,,0.00,WUHU216HW,2013-02-15 16:21:00,
2013-02-15 11:26:00,28.1,17.8,29.83,WNW,293,5.4,5.4,65,0.00,,,0.00,WUHU216HW,2013-02-15 16:26:00,
2013-02-15 11:31:00,28.3,17.3,29.83,West,270,4.3,5.4,63,0.00,,,0.00,WUHU216HW,2013-02-15 16:31:00,
2013-02-15 11:36:00,28.6,18.0,29.83,NNW,338,2.9,5.4,64,0.00,,,0.00,WUHU216HW,2013-02-15 16:36:00,
2013-02-15 11:41:00,29.2,18.5,29.83,WSW,248,5.8,5.8,64,0.00,,,0.00,WUHU216HW,2013-02-15 16:41:00,
2013-02-15 11:46:00,29.7,19.0,29.83,WNW,293,6.0,8.5,64,0.00,,,0.00,WUHU216HW,2013-02-15 16:46:00,
2013-02-15 11:51:00,29.5,18.1,29.83,WSW,248,5.6,8.5,62,0.00,,,0.00,WUHU216HW,2013-02-15 16:51:00,
2013-02-15 11:56:00,29.5,18.5,29.83,North,0,1.8,6.7,63,0.00,,,0.00,WUHU216HW,2013-02-15 16:56:00,
2013-02-15 12:01:00,29.5,18.1,29.83,SW,225,4.7,6.7,62,0.00,,,0.00,WUHU216HW,2013-02-15 17:01:00,
2013-02-15 12:06:00,29.7,18.3,29.83,West,270,8.7,9.8,62,0.00,,,0.00,WUHU216HW,2013-02-15 17:06:00,
2013-02-15 12:11:00,29.3,17.6,29.83,NW,315,1.8,9.8,61,0.00,,,0.00,WUHU216HW,2013-02-15 17:11:00,
2013-02-15 12:16:00,29.9,18.4,29.82,NNW,338,2.5,8.7,62,0.00,,,0.00,WUHU216HW,2013-02-15 17:16:00,
2013-02-15 12:21:00,30.2,18.7,29.83,WSW,248,1.6,6.0,62,0.00,,,0.00,WUHU216HW,2013-02-15 17:21:00,
2013-02-15 12:26:00,30.2,18.4,29.83,West,270,4.5,5.1,61,0.00,,,0.00,WUHU216HW,2013-02-15 17:26:00,
2013-02-15 12:31:00,29.9,18.0,29.82,West,270,3.6,9.6,61,0.00,,,0.00,WUHU216HW,2013-02-15 17:31:00,
2013-02-15 12:36:00,29.9,17.6,29.82,West,270,6.9,9.6,60,0.00,,,0.00,WUHU216HW,2013-02-15 17:36:00,
2013-02-15 12:41:00,29.9,16.8,29.82,West,270,6.3,8.5,58,0.00,,,0.00,WUHU216HW,2013-02-15 17:41:00,
2013-02-15 12:46:00,29.9,17.3,29.82,West,270,9.4,9.4,59,0.00,,,0.00,WUHU216HW,2013-02-15 17:46:00,
2013-02-15 12:51:00,30.1,17.5,29.82,SW,225,4.7,9.8,59,0.00,,,0.00,WUHU216HW,2013-02-15 17:51:00,
2013-02-15 12:56:00,30.4,17.7,29.82,WSW,248,3.4,9.8,59,0.00,,,0.00,WUHU216HW,2013-02-15 17:56:00,
2013-02-15 13:01:00,30.1,17.0,29.82,West,270,2.2,7.2,58,0.00,,,0.00,WUHU216HW,2013-02-15 18:01:00,
2013-02-15 13:06:00,29.9,16.8,29.82,NW,315,3.4,7.2,58,0.00,,,0.00,WUHU216HW,2013-02-15 18:06:00,
2013-02-15 13:11:00,30.1,17.5,29.82,WSW,248,4.3,6.0,59,0.00,,,0.00,WUHU216HW,2013-02-15 18:11:00,
2013-02-15 13:16:00,30.1,17.0,29.82,NNW,338,1.8,6.7,58,0.00,,,0.00,WUHU216HW,2013-02-15 18:16:00,
2013-02-15 13:21:00,29.9,17.3,29.82,West,270,1.1,6.7,59,0.00,,,0.00,WUHU216HW,2013-02-15 18:21:00,
2013-02-15 13:26:00,29.9,16.8,29.82,WSW,248,5.4,5.6,58,0.00,,,0.00,WUHU216HW,2013-02-15 18:26:00,
2013-02-15 13:31:00,30.2,16.7,29.82,WNW,293,3.4,5.4,57,0.00,,,0.00,WUHU216HW,2013-02-15 18:31:00,
2013-02-15 13:36:00,29.9,15.6,29.82,WNW,293,1.8,5.4,55,0.00,,,0.00,WUHU216HW,2013-02-15 18:36:00,
2013-02-15 13:41:00,29.7,15.8,29.82,WNW,293,5.1,6.3,56,0.00,,,0.00,WUHU216HW,2013-02-15 18:41:00,
2013-02-15 13:46:00,29.7,15.8,29.82,WNW,293,2.0,6.3,56,0.00,,,0.00,WUHU216HW,2013-02-15 18:46:00,
2013-02-15 13:51:00,30.2,17.2,29.82,WSW,248,4.0,6.3,58,0.00,,,0.00,WUHU216HW,2013-02-15 18:51:00,
2013-02-15 13:56:00,30.6,16.7,29.82,NW,315,4.3,8.5,56,0.00,,,0.00,WUHU216HW,2013-02-15 18:56:00,
2013-02-15 14:01:00,30.8,17.3,29.82,NW,315,2.7,8.5,57,0.00,,,0.00,WUHU216HW,2013-02-15 19:01:00,
2013-02-15 14:06:00,30.4,16.1,29.82,West,270,3.8,8.5,55,0.00,,,0.00,WUHU216HW,2013-02-15 19:06:00,
2013-02-15 14:11:00,29.9,15.6,29.82,West,270,3.4,6.5,55,0.00,,,0.00,WUHU216HW,2013-02-15 19:11:00,
2013-02-15 14:16:00,29.5,15.3,29.82,NW,315,2.7,6.5,55,0.00,,,0.00,WUHU216HW,2013-02-15 19:16:00,
2013-02-15 14:21:00,29.7,15.8,29.82,WSW,248,6.0,6.5,56,0.00,,,0.00,WUHU216HW,2013-02-15 19:21:00,
2013-02-15 14:26:00,29.9,16.0,29.82,WNW,293,1.8,6.0,56,0.00,,,0.00,WUHU216HW,2013-02-15 19:26:00,
2013-02-15 14:31:00,30.1,16.2,29.82,WSW,248,4.0,6.0,56,0.00,,,0.00,WUHU216HW,2013-02-15 19:31:00,
2013-02-15 14:36:00,29.7,15.5,29.82,West,270,3.4,4.7,55,0.00,,,0.00,WUHU216HW,2013-02-15 19:36:00,
2013-02-15 14:41:00,29.7,15.8,29.82,West,270,5.6,9.2,56,0.00,,,0.00,WUHU216HW,2013-02-15 19:41:00,
2013-02-15 14:46:00,29.9,15.2,29.82,NNW,338,4.5,9.2,54,0.00,,,0.00,WUHU216HW,2013-02-15 19:46:00,
2013-02-15 14:51:00,29.5,15.3,29.82,WNW,293,4.7,9.2,55,0.00,,,0.00,WUHU216HW,2013-02-15 19:51:00,
2013-02-15 14:56:00,29.2,14.9,29.82,WNW,293,5.4,5.4,55,0.00,,,0.00,WUHU216HW,2013-02-15 19:56:00,
2013-02-15 15:01:00,29.3,15.1,29.82,West,270,3.6,5.4,55,0.00,,,0.00,WUHU216HW,2013-02-15 20:01:00,
2013-02-15 15:06:00,29.3,14.7,29.83,West,270,3.1,5.4,54,0.00,,,0.00,WUHU216HW,2013-02-15 20:06:00,
2013-02-15 15:11:00,29.0,14.4,29.82,West,270,0.4,4.7,54,0.00,,,0.00,WUHU216HW,2013-02-15 20:11:00,
2013-02-15 15:16:00,29.0,14.4,29.82,WNW,293,4.5,6.9,54,0.00,,,0.00,WUHU216HW,2013-02-15 20:16:00,
2013-02-15 15:21:00,29.2,14.6,29.82,WNW,293,2.5,6.9,54,0.00,,,0.00,WUHU216HW,2013-02-15 20:21:00,
2013-02-15 15:26:00,29.2,14.9,29.82,West,270,1.8,6.3,55,0.00,,,0.00,WUHU216HW,2013-02-15 20:26:00,
2013-02-15 15:31:00,29.5,15.3,29.82,WNW,293,1.1,6.3,55,0.00,,,0.00,WUHU216HW,2013-02-15 20:31:00,
2013-02-15 15:36:00,29.2,14.1,29.83,WNW,293,5.4,6.3,53,0.00,,,0.00,WUHU216HW,2013-02-15 20:36:00,
2013-02-15 15:41:00,28.8,14.7,29.82,West,270,4.5,6.3,55,0.00,,,0.00,WUHU216HW,2013-02-15 20:41:00,
2013-02-15 15:46:00,29.0,14.4,29.83,West,270,4.0,6.9,54,0.00,,,0.00,WUHU216HW,2013-02-15 20:46:00,
2013-02-15 15:51:00,29.3,15.1,29.83,WNW,293,1.8,6.9,55,0.00,,,0.00,WUHU216HW,2013-02-15 20:51:00,
2013-02-15 15:56:00,29.3,14.7,29.83,WNW,293,4.3,7.6,54,0.00,,,0.00,WUHU216HW,2013-02-15 20:56:00,
2013-02-15 16:01:00,29.0,14.4,29.83,WSW,248,5.1,7.6,54,0.00,,,0.00,WUHU216HW,2013-02-15 21:01:00,
2013-02-15 16:06:00,28.6,14.5,29.83,NW,315,3.4,7.6,55,0.00,,,0.00,WUHU216HW,2013-02-15 21:06:00,
2013-02-15 16:11:00,28.4,14.3,29.84,NW,315,4.0,7.6,55,0.00,,,0.00,WUHU216HW,2013-02-15 21:11:00,
2013-02-15 16:16:00,28.4,14.3,29.84,WNW,293,2.2,6.9,55,0.00,,,0.00,WUHU216HW,2013-02-15 21:16:00,
2013-02-15 16:21:00,28.6,14.9,29.84,North,0,4.9,6.9,56,0.00,,,0.00,WUHU216HW,2013-02-15 21:21:00,
2013-02-15 16:26:00,28.4,14.8,29.84,WNW,293,2.5,4.9,56,0.00,,,0.00,WUHU216HW,2013-02-15 21:26:00,
2013-02-15 16:31:00,28.4,14.8,29.84,NW,315,1.3,4.9,56,0.00,,,0.00,WUHU216HW,2013-02-15 21:31:00,
2013-02-15 16:36:00,28.3,14.6,29.84,NW,315,4.5,4.5,56,0.00,,,0.00,WUHU216HW,2013-02-15 21:36:00,
2013-02-15 16:41:00,27.9,14.2,29.84,NW,315,1.8,4.7,56,0.00,,,0.00,WUHU216HW,2013-02-15 21:41:00,
2013-02-15 16:46:00,27.7,14.1,29.85,WNW,293,2.5,4.7,56,0.00,,,0.00,WUHU216HW,2013-02-15 21:46:00,
2013-02-15 16:51:00,27.7,14.4,29.84,NNW,338,0.0,3.6,57,0.00,,,0.00,WUHU216HW,2013-02-15 21:51:00,
2013-02-15 16:56:00,27.7,14.4,29.84,SW,225,3.1,3.1,57,0.00,,,0.00,WUHU216HW,2013-02-15 21:56:00,
2013-02-15 17:01:00,27.7,14.4,29.85,NW,315,1.1,3.6,57,0.00,,,0.00,WUHU216HW,2013-02-15 22:01:00,
2013-02-15 17:06:00,27.5,14.2,29.85,WNW,293,4.3,5.8,57,0.00,,,0.00,WUHU216HW,2013-02-15 22:06:00,
2013-02-15 17:11:00,27.2,13.9,29.85,WNW,293,2.9,5.8,57,0.00,,,0.00,WUHU216HW,2013-02-15 22:11:00,
2013-02-15 17:16:00,27.0,13.7,29.85,NW,315,3.6,6.3,57,0.00,,,0.00,WUHU216HW,2013-02-15 22:16:00,
2013-02-15 17:21:00,27.0,14.1,29.85,NW,315,2.5,6.3,58,0.00,,,0.00,WUHU216HW,2013-02-15 22:21:00,
2013-02-15 17:26:00,27.0,14.1,29.85,NW,315,2.0,4.0,58,0.00,,,0.00,WUHU216HW,2013-02-15 22:26:00,
2013-02-15 17:31:00,27.0,14.5,29.85,NW,315,2.7,4.7,59,0.00,,,0.00,WUHU216HW,2013-02-15 22:31:00,
2013-02-15 17:36:00,26.8,14.3,29.85,NW,315,1.6,4.7,59,0.00,,,0.00,WUHU216HW,2013-02-15 22:36:00,
2013-02-15 17:41:00,26.8,14.3,29.85,NW,315,1.1,4.7,59,0.00,,,0.00,WUHU216HW,2013-02-15 22:41:00,
2013-02-15 17:46:00,26.6,13.8,29.85,NNW,338,2.5,4.5,58,0.00,,,0.00,WUHU216HW,2013-02-15 22:46:00,
2013-02-15 17:51:00,26.5,13.6,29.85,NW,315,2.5,7.8,58,0.00,,,0.00,WUHU216HW,2013-02-15 22:51:00,
2013-02-15 17:56:00,26.5,13.6,29.85,NNW,338,1.8,7.8,58,0.00,,,0.00,WUHU216HW,2013-02-15 22:56:00,
2013-02-15 18:01:00,26.3,13.4,29.85,NW,315,2.0,5.8,58,0.00,,,0.00,WUHU216HW,2013-02-15 23:01:00,
2013-02-15 18:06:00,26.3,13.4,29.85,North,0,2.2,5.8,58,0.00,,,0.00,WUHU216HW,2013-02-15 23:06:00,
2013-02-15 18:11:00,26.3,13.4,29.86,NW,315,2.7,4.7,58,0.00,,,0.00,WUHU216HW,2013-02-15 23:11:00,
2013-02-15 18:16:00,26.3,13.9,29.86,WNW,293,1.8,4.7,59,0.00,,,0.00,WUHU216HW,2013-02-15 23:16:00,
2013-02-15 18:21:00,26.3,13.4,29.86,WNW,293,2.9,4.9,58,0.00,,,0.00,WUHU216HW,2013-02-15 23:21:00,
2013-02-15 18:26:00,26.3,13.4,29.86,NW,315,1.1,4.9,58,0.00,,,0.00,WUHU216HW,2013-02-15 23:26:00,
2013-02-15 18:31:00,26.1,13.2,29.86,WSW,248,1.6,4.7,58,0.00,,,0.00,WUHU216HW,2013-02-15 23:31:00,
2013-02-15 18:36:00,26.1,13.7,29.86,WSW,248,1.8,2.5,59,0.00,,,0.00,WUHU216HW,2013-02-15 23:36:00,
2013-02-15 18:41:00,26.1,13.7,29.86,NW,315,1.8,2.9,59,0.00,,,0.00,WUHU216HW,2013-02-15 23:41:00,
2013-02-15 18:46:00,25.9,13.5,29.87,NW,315,1.1,2.9,59,0.00,,,0.00,WUHU216HW,2013-02-15 23:46:00,
2013-02-15 18:51:00,25.9,13.5,29.87,NNW,338,2.5,2.5,59,0.00,,,0.00,WUHU216HW,2013-02-15 23:51:00,
2013-02-15 18:56:00,25.9,13.5,29.87,NW,315,2.9,2.9,59,0.00,,,0.00,WUHU216HW,2013-02-15 23:56:00,
2013-02-15 19:01:00,25.9,13.5,29.87,North,0,0.7,4.3,59,0.00,,,0.00,WUHU216HW,2013-02-16 00:01:00,
2013-02-15 19:06:00,25.9,13.5,29.87,West,270,1.1,4.3,59,0.00,,,0.00,WUHU216HW,2013-02-16 00:06:00,
2013-02-15 19:11:00,25.9,13.5,29.87,NW,315,0.4,3.8,59,0.00,,,0.00,WUHU216HW,2013-02-16 00:11:00,
2013-02-15 19:16:00,25.9,14.0,29.87,NW,315,0.4,2.0,60,0.00,,,0.00,WUHU216HW,2013-02-16 00:16:00,
2013-02-15 19:21:00,25.9,14.0,29.87,NW,315,0.2,2.0,60,0.00,,,0.00,WUHU216HW,2013-02-16 00:21:00,
2013-02-15 19:26:00,25.9,14.0,29.87,West,270,2.5,3.4,60,0.00,,,0.00,WUHU216HW,2013-02-16 00:26:00,
2013-02-15 19:31:00,25.9,14.0,29.87,WNW,293,0.4,3.4,60,0.00,,,0.00,WUHU216HW,2013-02-16 00:31:00,
2013-02-15 19:36:00,25.9,14.0,29.87,WNW,293,0.7,2.7,60,0.00,,,0.00,WUHU216HW,2013-02-16 00:36:00,
2013-02-15 19:41:00,25.9,14.0,29.87,NW,315,1.6,1.6,60,0.00,,,0.00,WUHU216HW,2013-02-16 00:41:00,
2013-02-15 19:46:00,25.9,14.0,29.87,NNW,338,0.4,1.6,60,0.00,,,0.00,WUHU216HW,2013-02-16 00:46:00,
2013-02-15 19:51:00,25.9,14.0,29.87,WNW,293,1.1,1.8,60,0.00,,,0.00,WUHU216HW,2013-02-16 00:51:00,
2013-02-15 19:56:00,25.9,14.3,29.87,WSW,248,1.3,3.6,61,0.00,,,0.00,WUHU216HW,2013-02-16 00:56:00,
2013-02-15 20:01:00,25.9,14.3,29.87,WNW,293,0.2,3.6,61,0.00,,,0.00,WUHU216HW,2013-02-16 01:01:00,
2013-02-15 20:06:00,26.1,14.5,29.87,NW,315,1.1,1.8,61,0.00,,,0.00,WUHU216HW,2013-02-16 01:06:00,
2013-02-15 20:11:00,26.1,14.5,29.87,WNW,293,2.0,2.5,61,0.00,,,0.00,WUHU216HW,2013-02-16 01:11:00,
2013-02-15 20:16:00,25.9,14.3,29.87,West,270,2.5,2.7,61,0.00,,,0.00,WUHU216HW,2013-02-16 01:16:00,
2013-02-15 20:21:00,25.9,14.7,29.87,WNW,293,3.8,5.4,62,0.00,,,0.00,WUHU216HW,2013-02-16 01:21:00,
2013-02-15 20:26:00,25.9,14.7,29.87,West,270,2.5,5.6,62,0.00,,,0.00,WUHU216HW,2013-02-16 01:26:00,
2013-02-15 20:31:00,25.9,15.0,29.87,WNW,293,0.4,5.6,63,0.00,,,0.00,WUHU216HW,2013-02-16 01:31:00,
2013-02-15 20:36:00,25.9,15.0,29.87,West,270,0.7,3.1,63,0.00,,,0.00,WUHU216HW,2013-02-16 01:36:00,
2013-02-15 20:41:00,25.7,14.9,29.87,West,270,6.3,6.3,63,0.00,,,0.00,WUHU216HW,2013-02-16 01:41:00,
2013-02-15 20:46:00,25.7,14.9,29.87,WSW,248,2.5,6.3,63,0.00,,,0.00,WUHU216HW,2013-02-16 01:46:00,
2013-02-15 20:51:00,25.7,14.9,29.87,West,270,0.7,4.7,63,0.00,,,0.00,WUHU216HW,2013-02-16 01:51:00,
2013-02-15 20:56:00,25.6,14.7,29.87,WNW,293,2.7,4.7,63,0.00,,,0.00,WUHU216HW,2013-02-16 01:56:00,
2013-02-15 21:01:00,25.6,14.7,29.87,West,270,4.0,5.1,63,0.00,,,0.00,WUHU216HW,2013-02-16 02:01:00,
2013-02-15 21:06:00,25.4,14.5,29.87,WNW,293,1.1,5.1,63,0.00,,,0.00,WUHU216HW,2013-02-16 02:06:00,
2013-02-15 21:11:00,25.4,14.5,29.87,WNW,293,2.7,4.3,63,0.00,,,0.00,WUHU216HW,2013-02-16 02:11:00,
2013-02-15 21:16:00,25.2,14.3,29.87,WSW,248,1.8,4.3,63,0.00,,,0.00,WUHU216HW,2013-02-16 02:16:00,
2013-02-15 21:21:00,25.2,14.3,29.87,West,270,4.0,4.0,63,0.00,,,0.00,WUHU216HW,2013-02-16 02:21:00,
2013-02-15 21:26:00,25.0,14.1,29.87,WSW,248,2.5,4.0,63,0.00,,,0.00,WUHU216HW,2013-02-16 02:26:00,
2013-02-15 21:31:00,25.0,14.1,29.87,NW,315,1.1,4.0,63,0.00,,,0.00,WUHU216HW,2013-02-16 02:31:00,
2013-02-15 21:36:00,24.8,14.3,29.87,West,270,2.5,4.3,64,0.00,,,0.00,WUHU216HW,2013-02-16 02:36:00,
2013-02-15 21:41:00,25.0,14.5,29.87,West,270,1.3,4.3,64,0.00,,,0.00,WUHU216HW,2013-02-16 02:41:00,
2013-02-15 21:46:00,25.0,14.5,29.87,West,270,4.0,4.0,64,0.00,,,0.00,WUHU216HW,2013-02-16 02:46:00,
2013-02-15 21:51:00,25.0,14.9,29.87,West,270,4.3,4.5,65,0.00,,,0.00,WUHU216HW,2013-02-16 02:51:00,
2013-02-15 21:56:00,25.0,15.2,29.87,WSW,248,1.1,5.8,66,0.00,,,0.00,WUHU216HW,2013-02-16 02:56:00,
2013-02-15 22:01:00,25.0,15.2,29.87,West,270,1.8,5.8,66,0.00,,,0.00,WUHU216HW,2013-02-16 03:01:00,
2013-02-15 22:06:00,25.0,15.2,29.87,West,270,1.1,4.3,66,0.00,,,0.00,WUHU216HW,2013-02-16 03:06:00,
2013-02-15 22:11:00,24.8,15.0,29.87,West,270,1.8,3.6,66,0.00,,,0.00,WUHU216HW,2013-02-16 03:11:00,
2013-02-15 22:16:00,24.8,15.0,29.87,West,270,4.5,6.3,66,0.00,,,0.00,WUHU216HW,2013-02-16 03:16:00,
2013-02-15 22:21:00,24.8,15.4,29.87,NW,315,3.4,6.3,67,0.00,,,0.00,WUHU216HW,2013-02-16 03:21:00,
2013-02-15 22:26:00,24.8,16.0,29.87,West,270,3.6,4.9,69,0.00,,,0.00,WUHU216HW,2013-02-16 03:26:00,
2013-02-15 22:31:00,24.5,15.8,29.87,West,270,2.5,8.3,69,0.00,,,0.00,WUHU216HW,2013-02-16 03:31:00,
2013-02-15 22:36:00,24.5,15.4,29.87,West,270,5.4,8.5,68,0.00,,,0.00,WUHU216HW,2013-02-16 03:36:00,
2013-02-15 22:41:00,24.5,15.8,29.87,WNW,293,4.3,8.5,69,0.00,,,0.00,WUHU216HW,2013-02-16 03:41:00,
2013-02-15 22:46:00,24.5,15.4,29.87,West,270,3.4,6.9,68,0.00,,,0.00,WUHU216HW,2013-02-16 03:46:00,
2013-02-15 22:51:00,24.3,15.2,29.87,West,270,2.7,4.3,68,0.00,,,0.00,WUHU216HW,2013-02-16 03:51:00,
2013-02-15 22:56:00,24.1,15.0,29.87,West,270,2.7,5.8,68,0.00,,,0.00,WUHU216HW,2013-02-16 03:56:00,
2013-02-15 23:01:00,24.1,15.4,29.87,West,270,1.8,5.8,69,0.00,,,0.00,WUHU216HW,2013-02-16 04:01:00,
2013-02-15 23:06:00,23.9,15.2,29.87,WNW,293,2.5,5.1,69,0.00,,,0.00,WUHU216HW,2013-02-16 04:06:00,
2013-02-15 23:11:00,23.9,15.2,29.87,West,270,2.0,3.8,69,0.00,,,0.00,WUHU216HW,2013-02-16 04:11:00,
2013-02-15 23:16:00,23.8,14.7,29.87,West,270,4.0,4.0,68,0.00,,,0.00,WUHU216HW,2013-02-16 04:16:00,
2013-02-15 23:21:00,23.8,14.7,29.87,West,270,2.5,4.7,68,0.00,,,0.00,WUHU216HW,2013-02-16 04:21:00,
2013-02-15 23:26:00,23.8,15.0,29.87,West,270,1.3,4.7,69,0.00,,,0.00,WUHU216HW,2013-02-16 04:26:00,
2013-02-15 23:31:00,23.6,14.9,29.87,West,270,2.5,4.5,69,0.00,,,0.00,WUHU216HW,2013-02-16 04:31:00,
2013-02-15 23:36:00,23.6,14.9,29.87,WSW,248,1.3,5.4,69,0.00,,,0.00,WUHU216HW,2013-02-16 04:36:00,
2013-02-15 23:41:00,23.4,15.1,29.87,NW,315,3.1,5.4,70,0.00,,,0.00,WUHU216HW,2013-02-16 04:41:00,
2013-02-15 23:46:00,23.4,15.4,29.86,WNW,293,1.8,4.7,71,0.00,,,0.00,WUHU216HW,2013-02-16 04:46:00,
2013-02-15 23:51:00,23.2,15.2,29.86,NW,315,2.5,5.1,71,0.00,,,0.00,WUHU216HW,2013-02-16 04:51:00,
2013-02-15 23:56:00,23.2,15.2,29.86,West,270,4.0,5.1,71,0.00,,,0.00,WUHU216HW,2013-02-16 04:56:00,